Location: Tierra del Sol
(32.6128°N, 116.3319°W)
Time: 00:04:44
(UTC-07:00)

Amateur Radio Satellites - All Passes

Search period start: 20 October 2014 23:34
Search period end: 21 October 2014 23:34
Location: Tierra del Sol, 32.6128°N, 116.3319°W

Satellite Date Start Highest point End Downlink Frequencies (MHz)
Time Altitude Azimuth
ZACube-1 20 Oct 23:40:29 23:42:29 13° 267° (W) 23:44:29 437.345 MHz
KITSAT 1 21 Oct 00:09:12 00:15:30 26° 255° (WSW) 00:21:49 435.175 FM
MaSat-1 21 Oct 00:14:17 00:18:37 58° 110° (ESE) 00:22:38 437.345 MHz
SO-50 21 Oct 00:34:11 00:37:20 17° 251° (WSW) 00:40:29 436.795 FM
UOSAT-12 21 Oct 00:40:03 00:44:36 47° 58° (ENE) 00:49:02 437.025 FM, 437.400 FM
Oscar 16 21 Oct 01:12:43 01:15:57 17° 94° (E) 01:19:10 437.025 USB, Beacon 2401.1428
RS-15 21 Oct 01:22:49 01:30:40 22° 321° (NW) 01:38:34 29.354 - 29.394 USB, Beacon 29.352 USB
JAS-1B 21 Oct 01:23:19 01:28:45 24° 98° (E) 01:34:52 435.800 - 435.900 CW/SSB
AO-Echo 21 Oct 01:42:06 01:45:34 18° 94° (E) 01:49:01 ?
MaSat-1 21 Oct 01:53:47 01:54:34 10° 302° (WNW) 01:55:20 437.345 MHz
Oscar 19 21 Oct 02:05:24 02:10:27 61° 101° (E) 02:15:30 437.125 CW, 437.150 USB
AO-27 21 Oct 02:12:57 02:17:21 27° 97° (E) 02:21:43 436.795 MHz FM
UOSAT-12 21 Oct 02:21:44 02:24:16 15° 252° (WSW) 02:26:47 437.025 FM, 437.400 FM
Oscar 10/S400 21 Oct 02:28:30 03:21:10 16° 253° (WSW) 04:52:06 145.825 - 145.975 CW/USB, Beacon 145.810 USB
Oscar 16 21 Oct 02:50:36 02:55:27 44° 287° (WNW) 03:00:16 437.025 USB, Beacon 2401.1428
Uribyol 2 21 Oct 03:02:14 03:07:29 87° 283° (WNW) 03:12:40 436.500 FM
Gurwin Techsat 1B 21 Oct 03:02:20 03:07:23 43° 99° (E) 03:12:23 435.225 FM
PCSat 21 Oct 03:05:40 03:06:58 11° 102° (ESE) 03:08:16 145.825 MHz
ITAMSAT 1 21 Oct 03:07:10 03:12:24 84° 284° (WNW) 03:17:37 435.822 SSB
JAS-1B 21 Oct 03:12:57 03:19:19 51° 287° (WNW) 03:26:53 435.800 - 435.900 CW/SSB
TMSAT-1 21 Oct 03:16:22 03:21:24 43° 99° (E) 03:26:23 436.925 FM
AO-Echo 21 Oct 03:19:24 03:24:27 46° 287° (WNW) 03:29:31 ?
Oscar 19 21 Oct 03:46:57 03:49:13 13° 295° (WNW) 03:51:29 437.125 CW, 437.150 USB
OPAL 21 Oct 03:52:17 03:54:58 14° 63° (ENE) 03:57:38 ?
AO-27 21 Oct 03:52:17 03:56:45 29° 290° (WNW) 04:01:11 436.795 MHz FM
Sapphire 21 Oct 04:21:20 04:26:38 62° 112° (ESE) 04:31:59 437.095 MHz 1200 baud AX-25 AFSK
AO-7 21 Oct 04:30:43 04:38:37 46° 101° (ESE) 04:46:29 29.400 - 29.500 MHz
Gurwin Techsat 1B 21 Oct 04:43:16 04:46:58 20° 293° (WNW) 04:50:40 435.225 FM
PCSat 21 Oct 04:44:16 04:49:39 73° 296° (WNW) 04:55:05 145.825 MHz
TMSAT-1 21 Oct 04:57:15 05:00:56 20° 293° (WNW) 05:04:37 436.925 FM
Uosat F 21 Oct 05:00:29 05:05:30 64° 102° (ESE) 05:10:29 435.120 FM
OPAL 21 Oct 05:28:13 05:33:19 59° 257° (WSW) 05:38:23 ?
STRAND 1 21 Oct 05:31:00 05:32:41 12° 64° (ENE) 05:34:23 ?
Hamsat 21 Oct 05:41:32 05:44:32 19° 95° (E) 05:47:31 145.90 MHz
JAS-2 21 Oct 05:54:23 06:02:02 57° 100° (E) 06:09:39 435.800 - 435.900 CW/SSB, 435.910 FM
RS-15 21 Oct 06:01:23 06:09:00 20° 37° (NE) 06:16:44 29.354 - 29.394 USB, Beacon 29.352 USB
Sapphire 21 Oct 06:07:12 06:10:28 16° 308° (NW) 06:13:45 437.095 MHz 1200 baud AX-25 AFSK
AO-7 21 Oct 06:23:52 06:31:05 35° 297° (WNW) 06:38:19 29.400 - 29.500 MHz
Uosat F 21 Oct 06:41:42 06:43:41 12° 296° (WNW) 06:45:40 435.120 FM
STRAND 1 21 Oct 07:06:08 07:11:13 69° 258° (WSW) 07:16:21 ?
Hamsat 21 Oct 07:16:55 07:20:25 26° 288° (WNW) 07:23:55 145.90 MHz
JAS-2 21 Oct 07:40:17 07:46:29 27° 294° (WNW) 07:52:46 435.800 - 435.900 CW/SSB, 435.910 FM
PANSAT 21 Oct 07:59:14 08:01:34 16° 159° (SSE) 08:03:56 not established
SO-67 21 Oct 08:08:19 08:11:36 42° 284° (WNW) 08:14:52 435.3500 MHz FM
RS-15 21 Oct 08:12:16 08:23:32 74° 61° (ENE) 08:35:18 29.354 - 29.394 USB, Beacon 29.352 USB
Saudisat 1A 21 Oct 08:15:55 08:20:17 84° 117° (ESE) 08:24:42 436.775 MHz
Oscar 11 21 Oct 09:19:44 09:21:04 11° 93° (E) 09:22:24 145.825 FM, Beacon 2401.500 USB
HO-68 21 Oct 09:29:11 09:36:17 59° 102° (ESE) 09:43:19 435.675 MHz FM
PANSAT 21 Oct 09:37:46 09:41:17 35° 170° (S) 09:44:49 not established
ZACube-1 21 Oct 09:57:33 09:59:16 12° 93° (E) 10:00:58 437.345 MHz
MaSat-1 21 Oct 10:06:14 10:08:23 23° 63° (ENE) 10:10:24 437.345 MHz
UKube-1 21 Oct 10:08:06 10:12:23 52° 101° (E) 10:16:37 145.840 MHz, 145.915 MHz
RS-15 21 Oct 10:26:24 10:34:52 25° 257° (WSW) 10:43:38 29.354 - 29.394 USB, Beacon 29.352 USB
FUNcube-1 21 Oct 10:41:13 10:45:18 44° 99° (E) 10:49:16 145.950 - 145.970 MHz USB
Oscar 11 21 Oct 10:53:19 10:57:26 46° 286° (WNW) 11:01:32 145.825 FM, Beacon 2401.500 USB
PANSAT 21 Oct 11:17:31 11:21:11 44° 183° (S) 11:24:50 not established
HO-68 21 Oct 11:18:05 11:23:24 23° 297° (WNW) 11:28:43 435.675 MHz FM
ZACube-1 21 Oct 11:31:50 11:35:50 40° 286° (WNW) 11:39:45 437.345 MHz
UKube-1 21 Oct 11:46:43 11:48:03 11° 294° (WNW) 11:49:24 145.840 MHz, 145.915 MHz
FUNcube-1 21 Oct 12:19:35 12:21:12 12° 293° (WNW) 12:22:49 145.950 - 145.970 MHz USB
Oscar 10/S400 21 Oct 12:20:17 12:43:45 39° 153° (SSE) 13:01:25 145.825 - 145.975 CW/USB, Beacon 145.810 USB
Oscar 16 21 Oct 12:25:48 12:28:58 17° 66° (ENE) 12:32:09 437.025 USB, Beacon 2401.1428
ISS 21 Oct 12:31:27 12:33:42 17° 127° (SE) 12:35:57 145.800 FM
KITSAT 1 21 Oct 12:35:17 12:43:19 74° 113° (ESE) 12:51:22 435.175 FM
AO-Echo 21 Oct 12:52:06 12:54:17 13° 65° (ENE) 12:56:30 ?
PANSAT 21 Oct 12:57:46 13:01:01 26° 195° (SSW) 13:04:15 not established
SO-50 21 Oct 13:03:17 13:07:24 39° 113° (ESE) 13:11:38 436.795 FM
Sapphire 21 Oct 13:14:46 13:18:45 20° 54° (NE) 13:22:42 437.095 MHz 1200 baud AX-25 AFSK
Oscar 19 21 Oct 13:17:43 13:22:45 55° 74° (ENE) 13:27:47 437.125 CW, 437.150 USB
AO-27 21 Oct 13:26:54 13:31:11 27° 69° (ENE) 13:35:30 436.795 MHz FM
PCSat 21 Oct 13:37:05 13:42:00 34° 59° (ENE) 13:46:53 145.825 MHz
JAS-1B 21 Oct 13:54:21 14:00:46 86° 256° (WSW) 14:06:32 435.800 - 435.900 CW/SSB
Oscar 16 21 Oct 14:02:54 14:07:53 48° 260° (W) 14:12:53 437.025 USB, Beacon 2401.1428
ISS 21 Oct 14:07:09 14:10:11 32° 321° (NW) 14:13:14 145.800 FM
Uribyol 2 21 Oct 14:15:27 14:20:40 89° 76° (ENE) 14:25:55 436.500 FM
Gurwin Techsat 1B 21 Oct 14:18:59 14:23:58 43° 72° (ENE) 14:28:58 435.225 FM
ITAMSAT 1 21 Oct 14:20:33 14:25:44 87° 256° (WSW) 14:30:59 435.822 SSB
AO-Echo 21 Oct 14:27:48 14:32:29 55° 260° (W) 14:37:20 ?
TMSAT-1 21 Oct 14:32:40 14:37:38 43° 72° (ENE) 14:42:37 436.925 FM
KITSAT 1 21 Oct 14:33:19 14:39:24 23° 312° (NW) 14:45:33 435.175 FM
SO-50 21 Oct 14:44:56 14:48:05 19° 309° (NW) 14:51:18 436.795 FM
UOSAT-12 21 Oct 14:46:50 14:51:07 40° 113° (ESE) 14:55:29 437.025 FM, 437.400 FM
Sapphire 21 Oct 14:57:11 15:02:23 47° 250° (WSW) 15:07:32 437.095 MHz 1200 baud AX-25 AFSK
Oscar 19 21 Oct 14:59:54 15:02:21 13° 267° (W) 15:04:48 437.125 CW, 437.150 USB
AO-27 21 Oct 15:06:03 15:10:32 29° 263° (W) 15:15:04 436.795 MHz FM
PCSat 21 Oct 15:20:47 15:25:12 26° 253° (WSW) 15:29:35 145.825 MHz
AO-7 21 Oct 15:24:53 15:32:29 42° 65° (ENE) 15:40:05 29.400 - 29.500 MHz
Gurwin Techsat 1B 21 Oct 16:00:29 16:04:04 18° 266° (W) 16:07:39 435.225 FM
JAS-2 21 Oct 16:06:10 16:08:15 12° 59° (ENE) 16:10:25 435.800 - 435.900 CW/SSB, 435.910 FM
Uosat F 21 Oct 16:09:15 16:14:06 54° 73° (ENE) 16:19:00 435.120 FM
TMSAT-1 21 Oct 16:14:04 16:17:40 19° 266° (W) 16:21:17 436.925 FM
UOSAT-12 21 Oct 16:28:04 16:31:24 19° 309° (NW) 16:34:47 437.025 FM, 437.400 FM
Saudisat 1A 21 Oct 16:47:41 16:50:52 19° 52° (NE) 16:54:03 436.775 MHz
AO-7 21 Oct 17:17:46 17:25:11 37° 260° (W) 17:32:40 29.400 - 29.500 MHz
OPAL 21 Oct 17:42:45 17:47:37 54° 103° (ESE) 17:52:26 ?
JAS-2 21 Oct 17:46:38 17:52:13 82° 257° (WSW) 17:58:33 435.800 - 435.900 CW/SSB, 435.910 FM
Uosat F 21 Oct 17:50:50 17:53:09 13° 267° (W) 17:55:28 435.120 FM
Hamsat 21 Oct 18:04:50 18:09:03 68° 259° (W) 18:13:14 145.90 MHz
Saudisat 1A 21 Oct 18:26:29 18:30:31 35° 247° (WSW) 18:34:31 436.775 MHz
SO-67 21 Oct 18:36:43 18:39:34 25° 73° (ENE) 18:42:26 435.3500 MHz FM
STRAND 1 21 Oct 19:21:23 19:26:29 59° 101° (E) 19:31:31 ?
OPAL 21 Oct 19:23:26 19:25:59 14° 297° (WNW) 19:28:32 ?
HO-68 21 Oct 19:53:44 19:59:33 28° 64° (ENE) 20:05:23 435.675 MHz FM
SO-67 21 Oct 20:11:04 20:12:32 12° 266° (W) 20:14:00 435.3500 MHz FM
RS-15 21 Oct 20:26:27 20:30:04 12° 99° (E) 20:33:40 29.354 - 29.394 USB, Beacon 29.352 USB
KITSAT 1 21 Oct 20:35:14 20:40:17 17° 44° (NE) 20:45:19 435.175 FM
ISS 21 Oct 20:39:15 20:42:16 31° 39° (NE) 20:45:15 145.800 FM
UKube-1 21 Oct 20:59:36 21:03:11 26° 70° (ENE) 21:06:46 145.840 MHz, 145.915 MHz
STRAND 1 21 Oct 21:02:35 21:05:06 14° 295° (WNW) 21:07:36 ?
FUNcube-1 21 Oct 21:33:22 21:36:57 23° 70° (ENE) 21:40:31 145.950 - 145.970 MHz USB
HO-68 21 Oct 21:40:03 21:46:52 48° 259° (W) 21:53:45 435.675 MHz FM
SO-50 21 Oct 21:40:23 21:42:48 14° 48° (NE) 21:45:14 436.795 FM
Oscar 11 21 Oct 21:43:22 21:47:41 75° 77° (ENE) 21:52:01 145.825 FM, Beacon 2401.500 USB
ISS 21 Oct 22:16:24 22:18:46 18° 232° (SW) 22:21:08 145.800 FM
ZACube-1 21 Oct 22:22:49 22:27:27 87° 77° (ENE) 22:32:03 437.345 MHz
KITSAT 1 21 Oct 22:28:44 22:36:50 84° 64° (ENE) 22:44:55 435.175 FM
RS-15 21 Oct 22:29:32 22:40:34 76° 114° (ESE) 22:51:27 29.354 - 29.394 USB, Beacon 29.352 USB
UKube-1 21 Oct 22:35:57 22:39:16 21° 264° (W) 22:42:37 145.840 MHz, 145.915 MHz
FUNcube-1 21 Oct 23:09:13 23:13:08 27° 263° (W) 23:17:03 145.950 - 145.970 MHz USB
SO-50 21 Oct 23:18:58 23:23:48 69° 244° (WSW) 23:28:39 436.795 FM
UOSAT-12 21 Oct 23:22:30 23:24:26 12° 47° (NE) 23:26:21 437.025 FM, 437.400 FM
